Date,TemperatureHighF,TemperatureAvgF,TemperatureLowF,DewpointHighF,DewpointAvgF,DewpointLowF,HumidityHigh,HumidityAvg,HumidityLow,PressureMaxIn,PressureMinIn,WindSpeedMaxMPH,WindSpeedAvgMPH,GustSpeedMaxMPH,PrecipitationSumIn
2013-8-1,91,77,64,57,50,47,77,40,24,0.00,40.00,14,9,25,0.13
2013-8-2,80,69,60,62,57,55,87,68,45,0.00,40.00,13,8,25,0.15
2013-8-3,86,71,57,64,60,55,97,71,45,0.00,40.00,10,6,20,0.00
2013-8-4,85,70,59,63,59,55,95,71,40,0.00,40.00,9,5,14,0.00
2013-8-5,93,73,56,63,54,40,94,60,16,0.00,40.00,11,5,25,0.00
2013-8-6,86,72,57,55,47,43,74,45,24,0.00,40.00,10,5,19,0.00
2013-8-7,90,72,55,51,46,41,73,44,19,0.00,40.00,16,6,32,0.00
2013-8-8,85,70,52,55,50,47,88,53,28,0.00,40.00,11,6,23,0.04
2013-8-9,80,68,60,64,58,52,91,73,43,0.00,40.00,14,7,25,0.31
2013-8-10,84,72,58,62,56,47,94,61,37,0.00,40.00,9,5,22,0.03
2013-8-11,92,73,56,56,50,42,87,50,20,0.00,40.00,10,6,14,0.00
2013-8-12,92,74,54,54,49,45,79,45,21,0.00,40.00,17,7,29,0.00
2013-8-13,87,73,60,57,48,-100,70,46,25,0.00,40.00,11,6,17,0.00
2013-8-14,90,72,56,50,45,40,68,43,18,0.00,40.00,8,5,14,0.00
2013-8-15,94,66,53,52,31,-100,85,43,13,0.00,40.00,7,5,13,0.00
2013-8-16,99,76,60,49,37,-100,52,30,10,0.00,40.00,14,8,19,0.00
2013-8-17,94,81,62,49,45,38,49,29,18,0.00,40.00,11,7,15,0.00
2013-8-18,90,78,68,54,50,46,56,39,24,0.00,40.00,10,7,21,0.00
2013-8-19,98,75,62,52,35,-100,66,32,13,0.00,40.00,11,6,15,0.00
2013-8-20,95,77,60,48,39,-100,65,30,13,0.00,40.00,9,5,14,0.00
2013-8-21,88,76,61,51,46,40,51,36,24,0.00,40.00,9,5,17,0.00
2013-8-22,95,80,64,57,54,50,68,42,25,0.00,40.00,10,5,16,0.00
2013-8-23,99,82,65,59,51,39,74,40,15,0.00,40.00,14,6,22,0.07
2013-8-24,90,77,65,60,52,43,79,47,23,0.00,40.00,11,6,21,0.07
2013-8-25,94,76,62,52,47,42,63,40,17,0.00,40.00,8,5,14,0.00
2013-8-26,97,83,66,53,47,42,60,32,15,0.00,40.00,13,6,22,0.00
2013-8-27,90,76,67,52,49,45,52,40,25,0.00,40.00,8,4,13,0.00
2013-8-28,98,89,74,62,52,42,50,30,17,0.00,40.00,14,6,22,0.00
2013-8-29,97,76,62,57,51,33,71,47,14,0.00,40.00,22,6,40,0.00
2013-8-30,99,77,61,58,51,38,73,45,14,0.00,40.00,19,7,29,0.00
2013-8-31,84,73,64,54,43,35,59,36,21,0.00,40.00,8,5,14,0.00